Location: ??????
(36.0418°N, 43.6351°E)
Time: 04:45:20
(UTC+00:00)

NOSS 3-4 (A) - Pass Details

Date: 07 March 2021
Orbit: 873 x 1339 km, 63.4° (Epoch: 19 April)

Event Time Altitude Azimuth Distance (km) Brightness Sun altitude
Exits shadow 02:06:59 17° 221° (SW) 2,078 4.8 -17.1°
Maximum altitude 02:11:33 70° 303° (WNW) 943 3.3 -16.2°
Drops below altitude 10° 02:17:38 10° 28° (NNE) 2,653 6.2 -15.0°
Sets 02:20:17 0° 30° (NNE) 3,656 7.0 -14.4°
